Voltar ao catálogo

THORAD AGENA D DEB

AtivoSSO
NORAD 4970·DEBRIS·🇺🇸 United States

Lançado Apr 8, 1970 de Vandenberg Space Force Base

Loading…

Próximas Passagens

TLE

Source: Space-Track
1 04970U 70025GQ  26217.45024681  .00000284  00000-0  44118-3 0  9997
2 04970  99.9558 183.1324 0037868 104.1545  22.3115 13.59966458781254

Acompanhe THORAD AGENA D DEB em tempo real com AllMySat

Download on the App Store